Orbital elements:
2021 CW4                                            PHA, Earth MOID = 0.0363 AU
Epoch 2020 Dec. 17.0 TT = JDT 2459200.5                 Veres
M 355.15095              (2000.0)            P               Q
n   0.42341369     Peri.  225.03655     +0.34659356     -0.93664395
a   1.7564109      Node   204.81714     +0.89103261     +0.34564552
e   0.5398816      Incl.    6.93864     +0.29314468     +0.05680924
P   2.33           H   19.7           G   0.15           U   1
Residuals in seconds of arc
170521 F51  0.4-  0.2-    210214 246  0.3+  0.0     210225 160  0.4+  1.0+
170521 F51  0.0   0.1-    210214 246  0.1+  0.5-    210225 160  0.7+  0.0
190504 F51  0.4+  0.1+    210214 246  1.2+  0.4+    210226 J95  0.1+  0.3-
190507 F51  0.1+  0.2-    210214 246  0.5-  0.4-    210226 J95  0.0   0.1-
190507 F51  0.1-  0.1-    210214 246  0.5-  0.8-    210226 J95  0.2-  0.0
190507 F51  0.0   0.2+    210215 T08  0.3+  0.2-    210226 J95  0.1-  0.0
190507 F51  0.0   0.0     210215 T08  0.1-  0.5+    210228 K87  0.4-  0.8+
190509 F51  0.2-  0.0     210215 T08  0.5-  0.1-    210228 K87  0.4-  0.3+
190509 F51  0.2+  0.0     210215 T08  0.3+  0.2+    210301 K87  0.1-  0.4+
190509 F51  0.1+  0.1+    210215 T08  0.3+  0.0     210301 K87  0.1+  0.3+
190509 F51  0.0   0.0     210215 T08  0.4-  0.1+    210301 K87  0.4-  0.1+
200530 F51  0.0   0.0     210215 T08  0.1+  0.5-    210301 160  0.6+  1.3-
200530 F51  0.2+  0.1+    210215 T08  0.0   0.0     210301 160  1.7+  1.4-
200530 F51  0.3-  0.2-    210215 595  0.0   0.4+    210301 160  0.3+  1.0-
200530 F51  0.1+  0.1-    210215 595  0.0   0.2+    210302 K87  0.3-  0.7+
200614 F51  0.3-  0.1-    210215 595  0.6-  0.2-    210302 K87  0.6+  0.1-
200614 F51  0.4-  0.1+    210216 T05  0.2-  0.3+    210302 K87  0.4+  0.0
200614 F51  0.2+  0.1+    210216 T05  0.4-  0.1+    210302 160  0.3-  0.2-
200614 F51  0.2-  0.1+    210216 T05  0.4-  0.0     210302 160  0.2+  0.8+
200622 F51  0.1+  0.1+    210216 T05  0.4-  0.2+    210302 160  0.3-  0.3-
200622 F51  0.0   0.1-    210216 474  0.1-  0.1+    210305 K87  0.6-  0.1-
200628 F52  0.4+  0.0     210216 474  0.4+  0.0     210305 K87  0.0   0.4+
200628 F52  0.0   0.2-    210216 474  0.9-  0.2-    210305 K87  0.2-  0.2+
200628 F52  0.0   0.0     210216 474  0.1+  0.8+    210307 T08  0.0   0.1+
200701 F52  0.2+  0.1-    210217 F52  0.0   0.1+    210307 T08  0.1-  0.4+
200701 F52  0.2-  0.7+    210217 F52  0.0   0.1+    210307 T08  0.0   0.1+
200701 F52  0.1+  0.5+    210217 T05  0.1-  0.0     210307 T08  0.1-  0.4+
200710 F52  0.1-  0.7+    210217 T05  0.0   0.1+    210307 130  0.1-  0.6-
200710 F52  0.0   0.1-    210217 T05  0.1-  0.0     210307 130  0.4+  0.3-
200716 F52  0.2+  0.1+    210217 T05  0.1-  0.2+    210307 246  0.1-  0.3+
200716 F52  0.2+  0.0     210219 I52  0.3-  0.2+    210307 246  0.0   0.4+
200716 F52  0.2+  0.1-    210219 I52  0.0   0.1+    210307 246  0.3-  0.1-
200723 F52  0.5+  0.2-    210219 I52  0.1+  0.1+    210307 246  0.1+  0.6+
200723 F52  0.1+  0.1+    210219 I52  0.2-  0.1+    210307 246  0.0   0.3+
200723 F52  0.1+  0.1-    210219 474  0.0   0.0     210307 K74  0.4-  0.3-
210207 703  0.4-  0.5-    210219 474  0.1+  0.0     210307 K74  0.1-  0.2-
210207 703  0.0   0.2+    210219 474  0.1+  0.0     210307 K74  0.3-  0.1-
210207 703  1.9-  0.7-    210220 474  0.1+  0.1-    210310 I52  0.0   0.7-
210207 703  0.7+  0.5-    210220 474  0.0   0.0     210310 I52  0.2+  0.2-
210210 T08  0.5-  0.0     210220 474  0.1-  0.1-    210310 I52  0.0   0.2-
210210 T08  0.5+  0.1-    210221 H21  0.1+  0.1+    210311 I52  0.2+  0.2-
210210 T08  0.2-  0.1-    210221 H21  0.0   0.0     210311 I52  0.0   0.2-
210210 T08  0.3+  0.5-    210221 H21  0.2-  0.0     210311 I52  0.7-  0.0
210210 K74  0.2-  0.2+    210221 H21  0.0   0.0     210311 I52  0.6-  0.1-
210210 K74  0.5+  0.5-    210221 H21  0.0   0.1-    210315 F52  0.0   0.1-
210210 J95  0.2+  0.1+    210221 I52  0.2+  0.2+    210315 F52  0.1+  0.1-
210210 K74  0.0   0.0     210221 I52  0.0   2.2+    210315 F52  0.0   0.1-
210210 J95  0.3+  0.1+    210221 I52  0.5+  0.4-    210318 I52  0.3-  0.0
210210 K74  0.2-  0.1+    210221 I52  0.4-  0.4-    210318 I52  0.1+  0.1+
210210 J95  0.1-  0.3-    210221 K83  0.3+  0.4+    210318 I52  0.1-  0.0
210210 J95  0.3-  0.0     210221 K83  0.1+  0.1+    210318 I52  0.1+  0.3+
210210 204  0.0   0.1+    210221 K83  0.4+  0.2+    210319 T08  0.5+  0.0
210210 204  0.0   0.0     210221 160  0.3-  0.6+    210319 T08  0.2-  0.4+
210210 204  0.1+  0.2+    210221 160  0.0   0.2-    210319 T08  0.4-  0.1+
210210 J04  0.2-  0.2+    210221 160  1.1-  1.2-    210319 T08  0.4-  0.3-
210210 J04  0.4-  0.0     210223 H21  0.0   0.5+    210320 G96  0.0   0.0
210210 J04  0.2-  0.2+    210223 H21  0.1-  0.6+    210320 G96  0.1+  0.0
210211 G96  0.0   0.1+    210223 H21  0.0   0.1+    210320 G96  0.0   0.0
210211 G96  0.0   0.0     210223 H21  0.1+  0.1+    210320 G96  0.0   0.1-
210211 G96  0.1-  0.0     210223 H21  0.1+  0.0     210323 I52  0.1-  0.4-
210211 G96  0.3+  0.1+    210223 H21  0.1+  0.2+    210323 I52  0.3-  0.4+
210212 I52  0.3-  0.2-    210223 H21  0.4+  0.1+    210323 I52  0.2+  0.3-
210212 I52  0.0   0.1+    210223 T08  0.2+  0.0     210330 I52  0.2-  0.2-
210212 I52  0.1-  0.2+    210223 T08  0.4+  0.1+    210330 I52  0.8+  0.5+
210212 I52  0.2-  0.1+    210223 T08  0.4-  0.2+    210330 I52  0.2+  0.1+
210212 703  0.2-  0.2+    210223 T08  0.3-  0.2-    210330 I52  0.8-  0.1+
210212 703  0.5+  0.3-    210224 203  0.2-  0.0     210402 I52  0.6-  0.2-
210212 703  0.3+  0.1-    210224 203  0.1+  0.2+    210402 I52  0.2+  0.6-
210212 703  0.6+  0.1-    210224 203  0.0   0.1+    210402 I52  0.5-  0.5-
210212 T05  0.2+  0.4-    210225 W46  0.4-  0.2-    210408 G96  0.3+  0.1+
210212 T05  0.2-  0.3-    210225 W46  0.6+  0.1-    210408 G96  0.1-  0.1-
210212 T05  2.2+  0.0     210225 W46  0.8-  0.1-    210408 G96  0.6+  0.2-
210212 T05  0.2-  0.3+    210225 W33  0.0   0.2+    210408 G96  0.0   0.0
210212 474  0.1+  0.0     210225 W33  0.1+  0.0     210411 F52  0.1-  0.1+
210212 474  0.0   0.2+    210225 W33  0.1-  0.1-    210411 F52  0.1+  0.0
210212 474  0.0   0.1-    210225 Z80  1.1+  0.3+    210411 F52  0.3+  0.1+
210212 474  0.1+  0.1+    210225 Z80  0.2+  0.1+    210415 F52  0.1+  0.2+
210214 246  0.0   0.2-    210225 Z80  0.7+  0.2-    210415 F52  0.1+  0.1+
210214 246  0.3-  0.2+    210225 160  0.2-  0.1-    210415 F52  0.1-  0.1-

Ephemeris:
2021 CW4                 a,e,i = 1.76, 0.54, 7                   q = 0.8082
Date    TT    R. A. (2000) Decl.     Delta      r    Elong.  Phase     V
2021 04 01    09 07 29.5 +06 47 47   0.5675  1.4068   125.5    35.3    20.7
...
2021 04 16    09 40 38.8 +07 44 07   0.7650  1.5266   118.7    35.2    21.5
...
2021 04 24    09 56 14.1 +07 43 33   0.8795  1.5884   114.7    35.1    21.9
...
2021 04 30    10 07 20.1 +07 33 03   0.9689  1.6337   111.5    35.0    22.1
2021 05 01    10 09 08.7 +07 30 35   0.9841  1.6411   111.0    35.0    22.2
2021 05 02    10 10 56.7 +07 27 56   0.9994  1.6486   110.4    34.9    22.2
...
2021 05 08    10 21 33.4 +07 08 22   1.0924  1.6926   107.2    34.7    22.5
...
2021 05 16    10 35 18.7 +06 33 41   1.2201  1.7498   102.9    34.3    22.8
...
2021 05 31    11 00 14.4 +05 08 07   1.4679  1.8521    94.8    33.1    23.3

A. U. Tomatic                (C) Copyright 2021 MPC           M.P.E.C. 2021-J11




More information about the Iaude mailing list